Date,TemperatureHighF,TemperatureAvgF,TemperatureLowF,DewpointHighF,DewpointAvgF,DewpointLowF,HumidityHigh,HumidityAvg,HumidityLow,PressureMaxIn,PressureMinIn,WindSpeedMaxMPH,WindSpeedAvgMPH,GustSpeedMaxMPH,PrecipitationSumIn
2013-4-1,69.3,57.0,45.2,52.2,45.0,36.7,98,69,35,29.98,29.82,16,2,16,0.02
2013-4-2,62.8,49.6,36.2,37.2,27.8,17.0,88,48,19,30.16,29.98,13,1,14,0.00
2013-4-3,61.5,47.7,31.2,32.7,24.8,16.6,89,45,18,30.31,30.14,10,1,10,0.00
2013-4-4,47.0,39.9,35.1,35.1,27.0,17.0,95,64,33,30.35,29.99,10,1,10,0.87
2013-4-5,66.7,49.1,35.4,46.3,38.9,32.9,97,73,30,30.05,29.91,10,1,10,0.05
2013-4-6,71.4,52.5,34.1,43.8,35.8,32.5,97,60,26,30.26,30.04,8,1,8,0.00
2013-4-7,73.7,58.3,41.5,48.0,42.5,34.0,87,58,35,30.24,30.08,13,2,18,0.00
2013-4-8,80.3,63.0,45.2,57.9,50.4,43.1,97,67,39,30.15,30.02,16,1,16,0.00
2013-4-9,87.5,69.7,50.1,58.4,54.3,47.9,97,62,33,30.17,30.03,11,1,12,0.00
2013-4-10,89.0,72.9,56.2,62.0,58.0,53.6,95,63,36,30.07,29.90,13,1,13,0.00
2013-4-11,83.6,68.9,61.2,66.9,59.6,56.8,90,74,44,29.94,29.71,17,1,17,0.03
2013-4-12,84.0,67.7,61.0,66.6,61.6,38.9,98,84,34,29.78,29.57,25,2,25,1.42
2013-4-13,77.1,61.1,43.7,47.1,41.0,32.2,94,52,20,30.01,29.77,11,1,11,0.00
2013-4-14,83.0,63.0,42.4,54.3,42.5,35.0,97,55,18,30.09,29.98,11,1,11,0.00
2013-4-15,64.8,59.3,54.9,58.5,56.1,53.5,97,89,72,30.20,30.00,6,0,7,0.27
2013-4-16,80.3,66.4,54.3,63.0,58.6,52.9,98,78,50,30.29,30.15,11,1,11,0.00
2013-4-17,82.6,69.2,57.3,63.7,59.7,55.9,97,74,46,30.20,30.08,12,0,12,0.00
2013-4-18,81.0,71.4,63.0,63.8,60.9,56.2,93,72,44,30.14,29.97,15,1,15,0.00
2013-4-19,76.7,67.7,56.4,68.4,62.9,46.2,95,85,71,29.97,29.68,22,2,22,0.50
2013-4-20,66.3,53.9,43.3,47.1,35.0,28.7,85,51,28,30.27,29.85,13,2,13,0.00
2013-4-21,63.7,50.4,38.1,41.7,37.3,32.3,93,64,38,30.50,30.27,12,1,12,0.00
2013-4-22,68.1,52.0,39.1,41.9,34.7,25.7,85,57,21,30.47,30.25,11,1,11,0.00
2013-4-23,71.6,58.3,47.9,52.8,46.6,39.4,84,66,48,30.28,30.08,7,1,7,0.00
2013-4-24,74.2,59.1,47.2,57.9,52.4,45.4,97,80,54,30.12,29.95,19,1,19,0.00
2013-4-25,75.2,58.9,46.2,57.2,38.5,19.9,81,52,13,30.28,30.00,11,1,11,0.00
2013-4-26,74.8,56.0,37.6,48.8,39.6,32.9,97,61,24,30.44,30.28,8,0,8,0.00
2013-4-27,68.1,59.2,52.8,54.5,51.2,48.2,91,76,54,30.35,30.25,6,0,6,0.00
2013-4-28,56.2,55.2,53.3,55.4,53.8,52.2,98,95,90,30.25,30.03,5,0,5,1.16
2013-4-29,74.2,59.9,53.6,62.5,57.0,52.8,98,91,64,30.06,29.95,5,0,5,0.16
2013-4-30,74.0,61.8,55.0,61.2,57.0,52.7,97,85,63,30.18,30.00,7,0,7,0.00